Regional Weather Roundup
Issued by NWS

Home | Current Version | Previous Version | Graphics & Text | Print | Product List | Glossary On
Versions: 1 2 3 4 5 6 7 8 9 10 11 12 13 14 15 16 17 18 19 20 21 22 23 24 25 26 27 28 29 30 31 32 33 34 35 36 37 38 39 40 41 42 43 44 45 46 47 48 49 50
000
ASUS43 KIND 240859
RWRIN

WEATHER ROUNDUP FOR INDIANA
NATIONAL WEATHER SERVICE INDIANAPOLIS IN
500 AM EDT SUN SEP 24 2017

NOTE: "FAIR" INDICATES FEW OR NO CLOUDS BELOW 12,000 FEET WITH NO
SIGNIFICANT WEATHER AND/OR OBSTRUCTIONS TO VISIBILITY.

* - STATION DOES NOT REPORT WEATHER SUCH AS PRECIPITATION OR FOG.

+ - STATION NOT QUALITY CONTROLLED BY THE NATIONAL WEATHER SERVICE.
    USE DATA WITH CAUTION...ESPECIALLY DEWPOINT AND RELATIVE
    HUMIDITY OBSERVATIONS.

INZ001>003-010>013-019-020-241000-
NORTHWEST INDIANA

CITY           SKY/WX    TMP DP  RH WIND       PRES   REMARKS
MONTICELLO +   CLEAR     67  64  93 CALM      30.08S

$$

LMZ046-743>745-241000-
SOUTHERN LAKE MICHIGAN

STATION/POSITION TIME  TEMP    WIND        PRES    WAVE
                       AIR SEA DIR/SP/G            HT
                 (UTC) (F)     (DEG/KT/KT) (MB)    (FT)
BURNS HARBOR     0840   76     170/  4/  7 1019.0R
MICHIGAN CITY    0830   74     120/  9/ 10   N/A
5NW MICH CITY    0850   73 72  140/  6/  8   N/A     0

$$

INZ004-005-014>016-021>024-241000-
NORTH CENTRAL INDIANA

CITY           SKY/WX    TMP DP  RH WIND       PRES   REMARKS
GOSHEN         CLEAR     66  59  78 CALM      30.12R
SOUTH BEND     CLEAR     65  64  97 E3        30.11S

$$

INZ006>009-017-018-025>027-241000-
NORTHEAST INDIANA

CITY           SKY/WX    TMP DP  RH WIND       PRES   REMARKS
FORT WAYNE     CLEAR     65  60  84 CALM      30.13S
KENDALLVILLE + CLEAR     64  60  86 CALM      30.14S

$$

INZ028-029-035-036-043>045-051>053-241000-
WEST CENTRAL INDIANA

CITY           SKY/WX    TMP DP  RH WIND       PRES   REMARKS
LAFAYETTE      CLEAR     66  66 100 CALM      30.08S
TERRE HAUTE    CLEAR     62  60  93 NE3       30.07S

$$

INZ030>032-037>040-046>048-054>057-064-065-241000-
CENTRAL INDIANA

CITY           SKY/WX    TMP DP  RH WIND       PRES   REMARKS
GREENWOOD *+   CLEAR     71  66  83 E3        30.10R
INDIANAPOLIS   CLEAR     70  64  81 E6        30.09R
-EAGLE CREEK   CLEAR     67  62  84 CALM      30.09R
KOKOMO +       PTCLDY    63  61  93 E3        30.11S
MT COMFORT *+  CLEAR     61  59  94 CALM      30.10S
SHELBYVILLE    CLEAR     65  60  84 E6        30.09R

$$

INZ033-034-041-042-049-050-058-059-241000-
EAST CENTRAL INDIANA

CITY           SKY/WX    TMP DP  RH WIND       PRES   REMARKS
MUNCIE         CLEAR     62  58  86 CALM      30.12R
RICHMOND +     CLEAR     61  57  88 E6        30.13S FOG

$$

INZ060-061-067>069-081>083-085>088-241000-
SOUTHWEST INDIANA

CITY           SKY/WX    TMP DP  RH WIND       PRES   REMARKS
EVANSVILLE     CLEAR     65  63  93 NE3       30.04S
HUNTINGBURG +  CLEAR     65  64  97 NE3       30.06S

$$

INZ062-063-066-070>080-084-089>092-241000-
SOUTH CENTRAL AND SOUTHEAST INDIANA

CITY           SKY/WX    TMP DP  RH WIND       PRES   REMARKS
BLOOMINGTON    CLEAR     61  58  90 CALM      30.08S
MADISON *+     CLEAR     63  61  94 NE3       30.10S
SEYMOUR +      FOG       63  63 100 CALM      30.07S VSB 1/4

$$





USA.gov is the U.S. government's official web portal to all federal, state and local government web resources and services.